Location: Erskine
(52.3216°N, 112.8806°W)
Time: 12:36:34
(UTC+00:00)

CAS-4A - Visible Passes

Search period start: 05 December 2023 00:00
Search period end: 15 December 2023 00:00
Orbit: 493 x 508 km, 43.0° (Epoch: 05 December)

Date Brightness Start Highest point End Pass type
(mag) Time Alt. Az. Time Alt. Az. Time Alt. Az.
05 Dec ? 00:44:22 10° SW 00:47:18 21° S 00:50:13 10° SE visible
05 Dec ? 02:23:38 10° SW 02:25:34 15° SSW 02:25:34 15° SSW visible
06 Dec ? 00:22:27 10° SW 00:25:23 21° S 00:28:19 10° SE visible
06 Dec ? 02:01:47 10° SW 02:03:53 14° SSW 02:04:55 13° S visible
07 Dec ? 00:00:31 10° SW 00:03:27 21° S 00:06:23 10° SE visible
07 Dec ? 01:39:56 10° SW 01:41:57 14° SSW 01:43:58 10° SSE visible
08 Dec ? 01:18:03 10° SW 01:19:59 13° SSW 01:21:55 10° S visible
09 Dec ? 00:56:09 10° SW 00:58:00 13° SSW 00:59:50 10° S visible
10 Dec ? 00:34:15 10° SW 00:35:59 13° SSW 00:37:43 10° S visible
11 Dec ? 00:12:20 10° SW 00:13:58 12° SSW 00:15:34 10° S visible
